Погода Краснощелье

Хотите узнать прогноз погоды Краснощелье? Тогда Вам сюда: Погода Краснощелье

Поиск расширенной информации на нашем сайте:

Полезная информация:

Новости сайта



02.01.2020
Опубликован Долгосрочный прогноз погоды по городам России и ближнего зарубежья на январь 2020 года.
Карты: Прогноз на январь и февраль 2020 года, Сравнение прогнозируемой аномалии приземной температуры воздуха на январь 2020 года по разным моделям.




Погода Краснощелье - сегодня

Время (UTC), дата Ветер
(°,м/с) 
Видим.   Явления Облачность Т
(°С)
Тd
(°С)
f(%) Тe
(°С)
Pmin
(гПа)
dP
(гПа)
Po
(мм)
O2
(г/м3)
Тmin Tmax R s Состояние
почвы
00 29.11.20 210 (ЮЗ) 3-7  10 км  слаб. ливневой снег  10/10 300 м кучево-дожд. 
[Cb cap]
-2.6 -3.9 91 -5  1030.9  -1.2  758  309           
03 29.11.20 220 (ЮЗ) 4-8{10}  20000 м  позёмок{ливн. осадки}  10/10 300 м 
[Sc]
-2.8 -4.7 87 -6  1030.3  -0.6  758  309  -2.8    0.0     
06 29.11.20 230 (ЮЗ) 4-8{11}  10 км  слаб. ливневой снег  10/10 300 м кучево-дожд. 
[Cb cap]
-3.2 -4.6 90 -6  1029.4  -1  757  309  -3.2    0.0  равномерный
сухой снег
100% 
09 29.11.20 240 (ЮЗ) 5-10{10}  20000 м  позёмок{ливн. осадки}  10/10 300 м 
[Sc]
-2.8 -4.7 87 -6  1029.7  0.4  757  309           
12 29.11.20 230 (ЮЗ) 5-9{10}  20000 м  позёмок{ливн. осадки}  10/10 300 м кучево-дожд. 
[Cb cap]
-2.6 -4.3 88 -6  1029  -0.7  757  308           
15 29.11.20 220 (ЮЗ) 4-9{10}  20000 м  позёмок  10/10 300 м 
[Sc]
-2.4 -4.4 86 -5  1028.6  -0.4  756  308      0.2     
18 29.11.20 230 (ЮЗ) 4-9{10}  20000 м  позёмок  10/10 300 м 
[Sc]
-2.5 -4.4 87 -5  1027.9  -0.7  756  308    -2.3  0.2     
21 29.11.20 220 (ЮЗ) 3-5{11}  10 км  слаб. ливневой снег  10/10 300 м кучево-дожд. 
[Cb cap]
-2.4 -3.8 90 -4  1027  -0.9  755  307           
00 30.11.20 220 (ЮЗ) 4-9  4000 м  слаб. ливневой снег  10/10 300 м кучево-дожд. 
[Cb cap]
-2.2 -3.8 89 -5  1026.3  -0.6  755  307           
03 30.11.20 220 (ЮЗ) 4-8{10}  10 км  слаб. ливневой снег  10/10 300 м кучево-дожд. 
[Cb cap]
-2.2 -3.8 89 -5  1025.1  -1.2  754  307  -2.6    0.5     
06 30.11.20 220 (ЮЗ) 5-10{10}  20000 м  позёмок{ливн. осадки}  10/10 300 м кучево-дожд. 
[Cb cap]
-2.3 -4.8 83 -6  1024.3  -0.8  753  307  -2.6    0.5  равномерный
сухой снег
100% 
09 30.11.20 210 (ЮЗ) 4-9{11}  20000 м  позёмок  9/9 300 м 
[Sc]
-2.8 -4.8 86 -6  1024  -0.3  753  307           
12 30.11.20 220 (ЮЗ) 4-7{11}  20000 м    10/10 300 м кучево-дожд. 
[Cb cap]
-3.9 -4.7 94 -7  1023.1  -1  752  308           
15 30.11.20 200 (Ю) 3-5  4000 м  слаб. ливневой снег  10/10 300 м кучево-дожд. 
[Cb cap]
-2.7 -3.7 93 -5  1021.2  -1.8  751  306      0.0     
18 30.11.20 190 (Ю) 4-7  4000 м  слаб. ливневой снег  10/10 300 м кучево-дожд. 
[Cb cap]
-0.9 -1.6 95 -3  1018.8  -2.2  749  303    -0.8  0.2     
21 30.11.20 200 (Ю) 3-8  20000 м  в посл. час ливневой снег  10/10 300 м кучево-дожд. 
[Cb cap]
-0.1 -1.2 92 -2  1016.9  -1.8  748  302           
00 01.12.20 200 (Ю) 4-7  10 км  слаб. ливневой снег  10/10 200 м кучево-дожд. 
[Cb cap]
+0 -0.8 94 -2  1015.3  -1.5  747  301           
03 01.12.20 190 (Ю) 3-6  10 км  слаб. ливневой снег  10/10 300 м кучево-дожд. 
[Cb cap]
+0.2 -0.4 96 -2  1013.7  -1.6  746  300  -2.7    0.5     
06 01.12.20 200 (Ю) 2-4  4000 м  слаб. ливневой снег  10/10 200 м кучево-дожд. 
[Cb cap]
-0.2 -0.8 96 -1  1012.2  -1.5  744  300  -0.9    равномерный
сухой снег
100% 
09 01.12.20 210 (ЮЗ) 2-4  4000 м  слаб. ливневой снег  10/10 300 м кучево-дожд. 
[Cb cap]
-0.7 -1.3 96 -2  1011.5  -0.7  744  301           
12 01.12.20 220 (ЮЗ) 5-9{10}  10 км  слаб. ливневой снег  10/10 300 м кучево-дожд. 
[Cb cap]
-1.1 -2.1 93 -4  1011.7  0.2  744  301           
15 01.12.20 //0 (С) //  н/о    н/о 
           
21 01.12.20 220 (ЮЗ) 2-4  4000 м  слаб. ливневой снег  10/10 300 м кучево-дожд. 
[Cb cap]
-2 -2.8 94 -3  1015  1.5  746  303           
00 02.12.20 240 (ЮЗ) 2-4  20000 м  в посл. час ливневой снег  10/10 300 м кучево-дожд. 
[Cb cap]
-2 -3 93 -3  1017.4  2.4  748  304           
03 02.12.20 250 (З) 1-2  20000 м    9/9 300 м 
[Sc]
-2.2 -3 94 -2  1018.7  1.2  749  305  -2.3    0.8     
Время (UTC), дата Ветер
(°,м/с) 
Видим.   Явления Облачность Т
(°С)
Тd
(°С)
f(%) Тe
(°С)
Pmin
(гПа)
dP
(гПа)
Po
(мм)
O2
(г/м3)
Тmin Tmax R s Состояние
почвы

Для получения пояснительной информации подведите курсор к названию столбца.

ПОГОДА Краснощелье - архив

Всё, что Вы хотите узнать о погоде Краснощелье - удобно и подробно!

Выберите нужную дату (начиная с 1 января 2019* года) и нажмите кнопку "Найти".
Будут отображены архивные сводки погоды по пункту Краснощелье, начиная с указанной даты.


Отображать данные в формате CSV (для использования в таблицах Excel)


Внимание! Наш архив погоды предназначен исключительно для личного некоммерческого использования в познавательных целях. Если Вам необходимы официальные справки о состоянии погоды (для производственных, юридических, коммерческих и т.п. целей), обращайтесь в органы Росгидромета.

*Примечание: данная дата относится к архиву по метеостанциям СССР (Россия, СНГ, Балтия).
Архив по метеостанциям Зарубежной Европы и Азии (кроме Китая) хранится 10 дней, по другим регионам земного шара (Китай, Африка, Америка, Австралия, Океания) - 1 день.

Краснощелье - район местоположения метеостанции


Название, широта, долгота, высота метеостанции:
Краснощелье 67.3°ш. 37.1°д. 156 м над ур. моря [Российская Федерация]

Дополнительная информация

В oтличие oт бoльшинства пoгoдных сайтoв мы публикуем пoдрoбную метеoинфoрмацию в детальнoм прoфессиoнальнoм фoрмате.

Характеристики температуры и влажнoсти вoздуха измеряются на высoте 2 м в тени вдали oт зданий и деревьев.
Скoрoсть ветра измеряется на высoте 10 м (на урoвне рoста челoвека скoрoсть ветра ниже в 1.5-2 раза). Если метеoстанция нахoдится в гoрoде или в лесу, тo скoрoсть ветра занижена на 2-4 м/с пo сравнению с oткрытым местoм. Скoрoсть ветра над акватoриями крупных рек и oзёр, а также на вершинах хoлмoв на 2-5 м/с выше, чем в oбычных услoвиях.
Атмoсфернoе давление в разных тoчках местнoсти мoжет значительнo oтличаться oт давления на метеoстанции, в зависимoсти oт услoвий рельефа (при пoдъёме на 10 м давление пoнижается примернo на 1 мм рт.ст.).